Location: Altenst�hlen
(53.5567°N, 8.9425°E)
Time: 07:43:35
(UTC+00:00)

USA 238 - Pass Details

Date: 23 October 2019
Orbit: 1027 x 1185 km, 63.4° (Epoch: 07 November)

Event Time Altitude Azimuth Distance (km) Brightness Sun altitude
Rises 17:30:40 0° 205° (SSW) 3,779 7.0 -12.5°
Reaches altitude 10° 17:33:18 10° 201° (SSW) 2,842 6.2 -12.9°
Maximum altitude 17:39:47 55° 126° (SE) 1,268 3.8 -13.8°
Enters shadow 17:46:14 11° 52° (NE) 2,845 5.5 -14.8°
